#timestamp,LO_Frequency,Hit,StdDev 
1514624415.1,286047001.2,N
1514624416.0,286047001.2,N
1514624435.8,286046999.1,N
1514624455.7,286047000.7,N
1514624475.5,286047001.2,N
1514624495.3,286046998.6,N
1514624515.2,286046998.3,N
1514624535.0,286046999.0,N
1514624535.9,286046999.0,N
1514624555.8,286046996.6,N
1514624575.6,286046996.7,N
1514624595.4,286046994.9,Y
1514624615.3,286046996.6,P
1514624635.1,286046996.5,P
1514624655.9,286046999.6,N
1514624675.7,286046999.5,N
1514624695.5,286046999.5,N
1514624715.4,286046997.4,N
1514624735.2,286046999.1,N
1514624755.0,286046998.6,N
1514624755.9,286046998.6,N
1514624775.8,286046997.0,N
1514624795.6,286046996.6,Y
1514624815.5,286047000.7,P
1514624835.3,286046998.2,N
1514624855.1,286047001.1,N
1514624875.9,286046999.3,N
1514624895.7,286046999.5,N
1514624915.6,286046998.9,N
1514624935.4,286046998.4,N
1514624955.2,286046996.6,Y
1514624975.1,286046999.5,P
1514624976.0,286046999.5,P
1514624995.8,286046999.4,P
1514625015.7,286046997.0,Y
1514625035.5,286046995.4,P
1514625055.3,286046996.8,N
1514625075.2,286046999.0,N
1514625095.9,286046999.4,N
1514625115.7,286046999.0,N
1514625135.6,286046999.0,N
1514625155.4,286046997.2,N
1514625175.3,286046995.1,Y
1514625195.1,286046999.1,P
1514625196.0,286046999.1,N
1514625215.8,286046998.9,N
1514625235.7,286046996.9,Y
1514625255.5,286047001.0,P
1514625275.4,286047000.0,N
1514625295.2,286047000.4,N
1514625315.0,286047001.6,N
1514625315.9,286047001.6,N
1514625335.8,286047003.9,Y
1514625355.6,286047002.3,P
1514625375.4,286047001.4,N
1514625395.3,286047004.0,P
1514625415.1,286047004.2,Y
1514625435.9,286046999.9,P
1514625455.7,286047000.0,N
1514625475.5,286047002.8,N
1514625495.4,286047002.7,N
1514625515.2,286047000.9,N
1514625535.1,286047000.4,N
1514625536.0,286047000.4,N
1514625555.8,286046998.9,N
1514625575.6,286046999.3,N
1514625595.5,286046999.5,N
1514625615.3,286046999.1,N
1514625635.1,286046999.5,N
1514625655.9,286046998.2,N
1514625675.7,286046998.4,N
1514625695.6,286047001.2,N
1514625715.4,286046999.5,N
1514625735.2,286046999.5,N
1514625755.1,286046999.6,N
1514625756.0,286046999.6,N
1514625775.8,286046995.8,Y
1514625795.7,286046995.5,P
1514625815.5,286046996.7,N
1514625835.3,286046999.2,N
1514625855.2,286046999.5,N
1514625875.0,286046996.7,N
1514625875.9,286046996.7,N
1514625895.8,286046996.5,N
1514625915.6,286046997.1,N
1514625935.4,286046997.7,N
1514625955.3,286046995.0,Y
1514625975.1,286046999.0,P
1514625995.9,286046999.5,N
1514626015.7,286046999.5,N
1514626035.5,286046998.4,N
1514626055.4,286046998.7,N
1514626075.2,286047001.1,N
1514626095.0,286047001.2,N
1514626095.9,286047001.2,N
1514626115.8,286047002.8,N
1514626135.6,286047004.3,N
1514626155.5,286047001.4,N
1514626175.3,286047002.0,N
1514626195.1,286047002.1,N
1514626215.9,286047002.1,N
1514626235.7,286047001.6,N
1514626255.6,286047000.1,N
1514626275.4,286047000.5,N
1514626295.2,286046999.8,N
1514626315.1,286046998.9,N
1514626316.0,286046998.9,N
1514626335.8,286047000.5,N
1514626355.6,286047000.6,N
1514626375.5,286047000.9,N
1514626395.3,286047000.3,N
1514626415.2,286046999.7,N
1514626435.9,286046999.9,N
1514626455.7,286047002.4,N
1514626475.6,286047002.2,N
1514626495.4,286047002.4,N
1514626515.3,286047002.3,N
1514626535.1,286047002.8,N
1514626536.0,286047002.8,N
1514626555.8,286047000.2,N
1514626575.7,286047002.2,N
1514626595.5,286046999.8,N
1514626615.3,286047000.0,N
1514626635.2,286046998.1,N
1514626655.0,286046998.1,N
1514626655.9,286046998.1,N
1514626675.8,286047001.0,N
1514626695.6,286047002.4,N
1514626715.4,286047002.8,N
1514626735.3,286046998.5,N
1514626755.1,286046998.2,N
1514626775.9,286047002.3,N
1514626795.7,286047001.6,N
1514626815.5,286047002.6,N
1514626835.4,286047001.9,N
1514626855.2,286047001.7,N
1514626875.1,286047001.4,N
1514626876.0,286047001.4,N
1514626895.8,286047001.4,N
1514626915.6,286047003.8,N
1514626935.5,286047003.7,N
1514626955.3,286047001.7,N
1514626975.1,286047001.9,N
1514626995.9,286047002.5,N
1514627015.7,286047000.1,N
1514627035.6,286047000.4,N
1514627055.4,286047002.2,N
1514627075.2,286047002.7,N
1514627095.1,286047002.2,N
1514627096.0,286047002.2,N
1514627115.8,286047002.1,N
1514627135.7,286047001.7,N
1514627155.5,286047004.4,N
1514627175.3,286047003.4,N
1514627195.2,286047003.2,N
1514627215.0,286047003.7,N
1514627215.9,286047003.7,N
1514627235.8,286047004.2,Y
1514627255.6,286046999.7,P
1514627275.4,286047000.2,N
1514627295.3,286047000.8,N
1514627315.1,286047000.2,N
1514627335.8,286047002.3,N
1514627355.7,286047002.2,N
1514627375.5,286047001.1,N
1514627395.4,286047000.4,N
1514627415.2,286047002.5,N
1514627435.0,286047002.3,N
1514627435.9,286047002.3,N
1514627455.8,286047002.7,N
1514627475.6,286046998.6,N
1514627495.5,286046998.6,N
1514627515.3,286046996.5,N
1514627535.1,286046997.4,N
1514627555.9,286046997.6,N
1514627575.7,286046997.7,N
1514627595.5,286046996.6,N
1514627615.4,286046997.0,N
1514627635.2,286046995.9,N
1514627655.1,286046995.6,N
1514627656.0,286046995.6,N
1514627675.8,286046999.6,N
1514627695.6,286046996.5,N
1514627715.5,286046998.5,N
1514627735.3,286046999.2,N
1514627755.2,286046998.1,N
1514627775.9,286047001.1,N
1514627795.7,286047001.2,N
1514627815.6,286046998.5,N
1514627835.4,286046998.9,N
1514627855.2,286046999.0,N
1514627875.1,286046998.2,N
1514627876.0,286046998.2,N
1514627895.8,286047000.6,N
1514627915.7,286046999.9,N
1514627935.5,286047000.1,N
1514627955.3,286046999.9,N
1514627975.2,286047000.3,N
1514627995.0,286047000.2,N
1514627995.9,286047000.2,N
